SCP
1 1 1 1 1 2 1 1 1 1 1 1 1 1 1 1 0 0 0 0 0 0 0 0 0 0 0 0 0 0 0 0 0 0 0 0 0 0 0 0 0 0 0
2 2 1 2 1 2 1 1 1 1 1 1 1 1 1 0 0 0 0 0 0 0 0 0 0 0 0 0 0 0 0 0 0 0 0 0 0 0 0 0 0 0 0
3 2 2 2 2 1 1 1 1 1 1 1 1 0 0 0 0 0 0 0 0 0 0 0 0 0 0 0 0 0 0 0 0 0 0 0 0 0 0 0 0 0 0
3 2 2 2 2 2 1 1 1 1 1 1 0 0 0 0 0 0 0 0 0 0 0 0 0 0 0 0 0 0 0 0 0 0 0 0 0 0 0 0 0 0 0
2 2 2 2 2 2 2 2 1 1 1 1 0 0 0 0 0 0 0 0 0 0 0 0 0 0 0 0 0 0 0 0 0 0 0 0 0 0 0 0 0 0 0
2 2 2 3 3 3 2 2 2 1 1 1 0 0 0 0 0 0 0 0 0 0 0 0 0 0 0 0 0 0 0 0 0 0 0 0 0 0 0 0 0 0 0
2 2 2 3 3 3 3 3 2 2 1 1 0 0 0 0 0 0 0 0 0 0 0 0 0 0 0 0 0 0 0 0 0 0 0 0 0 0 0 0 0 0 0
2 2 2 3 3 4 3 3 3 2 1 1 0 0 0 0 0 0 0 0 0 0 0 0 0 0 0 0 0 0 0 0 0 0 0 0 0 0 0 0 0 0 0
3 3 3 3 3 3 3 3 2 2 1 1 1 0 0 0 0 0 0 0 0 0 0 0 0 0 0 0 0 0 0 0 0 0 0 0 0 0 0 0 0 0 0
4 3 3 3 3 3 3 3 2 2 1 1 1 1 0 0 0 0 0 0 0 0 0 0 0 0 0 0 0 1 0 0 0 0 0 0 0 0 0 0 0 0 0
4 4 3 3 3 3 3 2 2 2 1 1 1 1 1 0 0 0 0 0 0 0 0 0 1 1 0 0 1 1 0 0 0 0 0 0 0 1 0 0 0 0 0
4 4 3 3 3 2 2 2 2 2 2 2 2 1 1 0 0 0 0 0 0 0 0 1 1 0 0 0 0 0 0 0 0 0 0 0 1 1 1 0 0 0 0
3 3 3 3 2 2 2 2 2 2 2 2 2 1 1 1 0 0 0 0 0 0 0 0 0 0 0 0 0 0 0 0 0 0 0 0 0 1 1 0 0 0 0
3 3 3 2 2 2 2 2 1 1 2 2 2 1 1 1 0 0 0 0 0 0 0 0 0 0 0 0 0 0 0 0 0 0 0 0 0 0 0 0 0 0 0
3 2 2 2 2 2 2 2 1 1 1 1 1 1 1 0 0 0 0 0 0 0 0 0 0 0 0 0 0 0 0 0 0 0 0 0 0 0 0 0 0 0 0
3 3 3 3 2 2 2 2 1 1 1 1 1 1 1 0 0 0 0 0 0 0 0 0 0 0 0 0 0 0 0 0 0 0 0 0 0 0 0 0 0 0 0
3 3 3 3 3 3 2 2 1 1 1 1 1 1 1 0 0 0 0 0 0 0 0 0 0 0 0 0 0 0 0 0 0 0 0 0 0 0 0 0 0 0 0
3 3 2 3 3 2 2 1 1 1 1 1 1 1 1 0 0 0 0 0 0 0 0 0 0 0 0 0 0 0 0 0 0 0 0 0 0 0 0 0 0 0 0
3 2 2 3 3 2 2 1 1 1 1 1 1 1 1 1 0 0 0 0 0 0 0 0 0 0 0 0 0 0 0 0 0 0 0 0 0 0 0 0 0 0 0
2 2 2 2 2 2 2 1 1 1 1 2 2 1 1 1 1 0 0 0 0 0 0 0 0 0 0 0 0 0 0 0 0 0 0 0 0 0 0 0 0 0 1
3 2 2 2 2 2 2 2 1 1 1 2 2 1 1 1 1 0 0 0 0 0 0 0 0 0 0 0 0 0 0 0 0 0 0 0 0 0 0 0 0 1 1
4 3 2 2 2 2 2 2 2 2 2 1 1 1 1 1 1 0 0 0 0 0 0 0 0 0 0 0 0 0 0 0 0 0 0 0 0 0 0 0 0 1 1
6 4 3 2 2 2 2 2 2 2 2 1 1 1 1 1 1 0 0 1 0 0 0 0 0 0 0 0 0 0 0 0 0 0 0 0 0 0 0 0 0 0 0
5 4 3 3 3 3 3 3 2 2 2 1 1 1 1 1 1 1 1 1 1 0 0 0 0 0 0 0 0 0 0 0 0 0 0 0 0 0 0 0 0 0 0
3 3 3 3 3 3 3 3 2 2 2 1 1 1 1 1 1 1 1 1 1 0 0 0 0 0 0 0 0 0 0 0 0 0 0 0 0 0 0 0 0 0 0
2 2 3 3 3 3 3 3 2 2 2 2 1 1 1 1 1 1 1 1 1 0 0 0 0 0 0 0 0 0 0 0 0 0 0 0 0 0 0 0 0 0 0
Wind_Speed
8 9 17 17 17 17 17 17 17 17 17 17 16 16 16 15 14 14 13 13 12 12 12 12 12 13 13 13 13 13 12 12 12 13 13 13 13 13 13 14 14 11 15
12 12 18 18 18 17 17 16 16 16 16 16 16 16 15 14 14 13 13 13 13 13 13 13 13 13 13 13 13 13 12 12 12 12 12 11 12 12 13 14 13 10 14
15 12 15 18 18 17 17 16 16 16 16 15 15 15 14 14 13 13 12 12 12 13 13 13 13 13 12 12 12 12 12 12 11 12 11 7 9 12 13 13 14 14 14
16 12 13 19 18 18 17 16 16 15 15 15 14 14 13 13 13 12 12 12 12 12 12 12 12 12 12 11 11 10 11 11 11 11 6 6 7 11 12 13 13 13 13
13 10 14 20 19 18 17 16 15 15 15 14 13 13 12 12 12 12 11 11 12 12 12 12 12 11 11 10 10 9 9 11 11 9 6 5 5 10 12 12 13 13 13
12 10 13 20 19 18 17 16 15 15 14 13 13 12 12 12 11 11 11 11 11 11 11 11 11 10 10 9 8 8 9 10 9 6 6 6 5 9 12 12 13 12 12
12 9 12 19 19 18 17 16 15 14 14 13 12 12 11 11 11 11 10 10 10 10 10 10 10 9 8 7 7 7 8 10 7 6 5 5 5 9 11 12 12 12 11
13 10 11 19 19 17 17 16 15 14 13 13 12 11 11 10 10 10 10 9 9 9 9 9 9 8 7 6 6 6 8 10 8 7 5 4 6 8 10 11 11 11 11
10 9 8 10 13 16 16 15 15 14 13 12 12 11 10 10 9 9 8 8 8 8 8 8 7 7 6 6 6 6 8 10 7 5 6 4 6 8 10 10 10 10 10
9 8 7 7 7 7 9 14 14 13 12 12 11 10 10 9 8 8 7 6 7 7 7 6 6 5 5 6 6 6 7 8 5 4 3 4 8 9 10 10 10 10 10
10 7 7 7 6 6 6 11 11 12 11 10 8 10 7 3 3 4 5 6 6 6 5 5 4 4 5 5 5 6 6 3 4 3 3 6 8 9 10 10 10 10 9
13 10 7 7 7 6 7 5 4 4 5 4 3 4 3 3 2 3 3 5 4 4 4 4 3 3 4 2 3 4 2 3 3 3 3 7 8 9 9 9 9 10 9
12 11 9 8 7 6 4 4 3 2 3 3 4 4 3 3 2 2 1 1 1 2 2 2 3 2 2 1 1 1 2 2 1 1 2 6 7 8 9 9 9 9 9
12 12 9 9 7 6 5 4 4 3 3 3 3 4 3 2 2 1 1 1 1 1 2 2 1 2 2 1 1 2 2 1 1 1 2 5 6 6 8 9 9 9 9
11 11 10 9 8 6 5 4 5 3 4 4 3 3 4 3 2 2 1 1 1 1 1 1 1 1 1 1 0 2 2 2 1 1 1 3 5 5 6 8 8 9 9
12 11 9 9 8 6 5 4 4 4 3 4 3 3 4 3 3 2 2 1 1 1 1 1 1 1 1 1 1 0 1 1 1 1 1 1 3 4 5 6 7 8 8
11 10 10 9 8 7 6 5 4 4 4 3 3 3 4 4 3 3 2 1 1 1 2 2 2 2 1 1 1 1 1 0 0 1 1 1 1 2 4 5 6 6 7
10 10 10 10 9 7 6 5 4 4 4 3 3 3 4 4 4 3 2 2 1 2 2 2 2 2 1 1 1 1 1 1 1 1 1 1 1 1 2 4 5 6 8
10 10 10 9 10 8 7 5 5 4 4 3 3 3 3 4 4 4 3 2 2 2 2 2 2 1 1 1 0 1 1 1 1 1 1 1 1 1 1 2 4 5 7
9 9 10 9 8 7 6 5 4 4 3 3 3 3 4 4 5 4 3 3 3 2 2 2 2 2 1 1 1 2 2 2 1 1 1 1 0 1 1 2 1 2 5
9 9 9 9 8 7 6 5 4 4 3 3 3 4 5 5 5 4 3 3 3 3 2 3 2 3 2 1 2 2 3 3 3 2 2 1 2 1 1 1 1 1 1
9 9 9 9 9 8 6 5 4 4 3 2 2 3 4 5 5 4 4 3 3 3 3 2 2 2 2 2 2 2 2 3 3 3 2 2 2 2 2 1 0 0 0
10 10 10 9 9 8 7 5 5 4 3 2 2 2 2 4 5 4 5 4 3 3 3 2 2 4 3 2 2 3 3 2 1 3 3 4 3 3 2 2 2 1 1
10 9 10 9 8 8 8 8 9 6 4 4 3 3 3 4 5 5 5 4 4 3 3 2 2 2 4 2 2 2 2 2 2 1 2 3 4 4 4 3 3 3 2
9 9 9 9 8 8 8 9 8 6 4 3 4 5 4 3 4 4 5 4 4 3 3 3 3 3 2 3 2 2 3 3 2 2 1 3 3 3 4 4 3 3 3
8 8 9 9 8 8 8 8 9 9 7 7 6 5 4 2 2 4 5 4 4 3 3 3 3 5 3 4 3 2 2 2 2 2 2 1 2 2 3 3 3 3 3
Wind_Direction
156 157 151 145 139 134 130 126 124 123 122 121 120 120 119 119 119 117 115 113 110 108 106 105 106 104 103 105 107 107 108 107 106 107 106 106 107 109 110 109 106 106 109
147 154 153 148 143 138 134 130 128 126 125 124 123 123 122 120 119 118 116 115 113 111 108 107 106 104 104 107 108 108 108 109 107 107 106 106 109 110 112 110 109 112 114
145 152 152 150 145 141 138 134 132 130 129 127 126 125 124 123 121 120 118 116 113 111 109 107 106 105 106 108 108 109 109 108 108 108 102 102 111 113 115 115 115 114 115
146 148 152 152 148 144 141 138 136 134 132 131 130 128 127 125 122 121 118 117 115 113 111 110 109 108 108 109 110 111 113 112 112 110 98 104 113 118 117 118 119 118 116
144 146 156 153 150 147 145 142 140 138 137 135 134 131 130 128 124 122 120 119 117 114 112 111 110 110 110 110 111 113 118 119 115 106 99 97 105 122 121 122 122 119 116
144 148 159 154 153 151 149 147 144 143 142 140 138 136 133 131 128 125 123 120 117 115 112 111 110 110 110 111 113 117 123 123 112 107 107 109 114 126 127 126 125 123 120
146 151 159 155 155 154 153 151 149 148 146 145 143 141 138 136 133 130 126 124 120 116 114 113 111 109 107 106 110 121 131 128 119 116 116 116 123 129 128 127 127 127 125
151 151 156 158 158 157 157 155 154 153 152 150 148 146 144 141 139 136 132 128 124 120 116 113 111 107 104 101 104 119 133 132 127 127 123 125 135 133 130 129 128 126 127
148 147 152 157 159 161 160 159 159 157 156 155 153 151 149 147 144 139 135 134 131 126 122 118 113 107 101 95 96 110 131 134 127 132 138 136 144 141 138 137 134 132 132
147 149 149 149 148 153 159 163 163 161 160 158 157 157 156 153 149 145 140 141 138 134 130 125 116 104 93 92 97 110 121 124 127 133 132 155 154 150 147 146 144 142 142
157 154 150 145 142 143 153 167 165 165 165 162 161 162 154 124 124 138 151 156 151 147 141 130 116 97 82 82 91 103 106 112 131 133 143 163 161 160 156 154 152 151 150
167 166 157 151 149 150 164 154 146 149 146 137 128 132 111 106 121 138 166 168 163 159 146 126 109 84 69 63 76 91 97 120 132 144 166 174 172 168 165 164 163 161 161
169 171 166 160 156 156 151 141 131 124 123 124 128 124 119 112 103 96 90 111 105 114 76 77 66 54 61 79 86 97 118 126 136 149 177 185 183 179 174 172 172 169 169
171 176 168 162 161 159 150 145 140 141 136 138 140 138 133 132 131 125 103 91 87 85 92 78 71 69 70 89 114 117 126 138 150 144 210 198 191 191 187 183 181 179 178
176 176 170 166 167 162 151 155 156 155 150 146 144 151 151 152 156 152 145 137 131 119 122 113 102 93 80 66 96 134 143 150 173 187 234 210 197 198 202 197 191 190 189
176 175 170 169 167 161 158 157 153 152 149 143 150 159 160 158 157 153 157 155 147 140 137 133 133 116 99 82 50 88 135 155 176 199 221 234 216 210 213 213 206 205 204
173 172 170 169 163 162 160 164 155 150 147 148 152 158 162 160 156 155 159 161 157 137 126 104 96 89 87 72 35 11 27 302 265 239 227 225 246 236 231 225 218 217 220
171 170 174 175 166 165 162 156 149 149 148 151 151 156 160 159 155 150 150 155 135 118 115 115 98 89 77 72 41 3 1 331 294 283 261 234 238 255 263 250 237 227 228
174 170 173 170 166 166 160 149 146 145 150 153 147 150 151 149 146 138 139 135 126 115 113 129 98 116 114 91 77 40 8 348 313 310 285 265 244 240 255 282 269 247 238
167 169 171 163 159 154 142 129 122 122 133 137 141 144 142 139 137 131 128 130 127 116 108 107 109 90 91 94 73 54 22 11 19 10 339 335 289 247 236 254 281 272 261
163 168 168 161 157 153 147 149 146 146 144 133 138 142 143 140 137 132 128 125 129 130 141 141 117 95 66 65 87 51 25 30 38 23 15 19 9 343 303 265 261 258 293
165 167 163 161 161 162 160 151 140 132 127 122 122 126 139 140 139 140 134 135 132 123 117 121 127 116 70 49 111 100 49 18 14 21 23 37 27 24 30 21 16 327 312
167 172 169 166 161 157 148 129 117 102 94 104 115 121 136 136 133 133 139 133 129 126 129 127 133 130 121 60 56 129 135 169 345 359 20 31 26 31 21 16 30 30 33
174 172 169 164 158 155 150 150 152 151 153 164 154 142 126 125 132 132 131 130 129 126 126 127 117 118 126 121 72 54 88 136 134 69 360 9 24 32 22 23 29 29 27
169 168 166 157 159 160 161 159 155 147 141 132 126 129 120 112 124 129 130 130 130 125 122 114 108 104 109 127 128 115 87 71 75 123 77 353 7 16 21 22 32 34 31
162 163 161 159 163 163 165 163 160 154 148 142 142 144 137 121 113 123 128 128 128 124 122 118 109 104 99 103 105 110 126 124 117 114 123 51 357 347 0 17 29 26 25